DateTime,Index
2004091918,0.0
2004092000,0.0
2004092006,0.0
2004092012,1600.0
2004092018,2500.0
2004092100,3025.0
2004092106,3600.0
2004092112,3600.0
2004092118,3600.0
2004092200,3025.0
2004092206,2500.0
2004092212,2025.0
2004092218,2025.0
2004092300,2025.0
2004092306,1600.0
2004092312,1225.0
2004092318,0.0
2004092400,0.0
2004092406,1600.0
2004092412,1225.0
2004092418,0.0
2004092500,0.0
2004092506,1225.0
2004092512,2025.0
2004092518,2025.0
2004092600,2025.0
2004092606,2500.0
2004092612,3025.0
2004092618,2500.0
2004092700,2025.0
2004092706,2025.0
2004092712,2025.0
2004092718,1600.0
2004092800,1600.0
2004092806,1600.0
2004092812,2025.0
2004092818,3025.0
2004092900,3600.0
2004092906,3600.0
2004092912,3600.0
2004092918,3600.0
2004093000,3600.0
2004093006,3025.0
2004093012,2500.0
2004093018,2025.0
2004100100,2500.0
2004100106,3025.0
2004100112,3600.0
2004100118,3600.0
2004100200,3600.0
2004100206,4225.0
2004100212,4225.0
2004100218,3025.0
2004100300,2500.0
2004100306,2025.0
